Showing default

FLOCK 4Q 11, 58273

Orbit data source: Space-Track

FLOCK 4Q 11, 58273 is a payload satellite owned by Planet (US) in SSO that was launched on Sat, 11 Nov 2023 UTC via an FALCON 9 launch vehicle from the Air Force Western Test Range (AFWTR). Payload-class satellites include a variety of spacecraft equipped with specific instruments for various scientific and technological missions. These include communications satellites like Starlink; space stations such as the ISS; scientific satellites like the Hubble; Earth observation satellites from companies like Planet Labs, Umbra, and HawkEye 360; GPS; miniature CubeSats for education and research; and military/defense satellites.

Loading next visibility...
Identifier
58273, 2023-174T
Orbit
SSO
Country
Flag of USUS
Related business
Manufacturer
Planet
Mission
Partially operational Commercial Imaging
Bus & Motor
CUBESAT 3U, Unknown motor
Mass
5.7 kg wet, 5.7 kg dry
Launch date (UTC)
2023-11-11 (3 years ago)
Launch vehicle
FALCON 9
Launch site
Air Force Western Test Range (AFWTR)
Object type
Payload
Rocket body
Debris
Shape & HBR
Box + 2 Pan, 1.0 m
Radar Cross Section
0.072 m², Medium (>0.1 m² and < 1m²)

Expand to show TLE details & history
Last TLE update: 8 hours ago

TLE from 8 hours ago
0 FLOCK 4Q 11
1 58273U 23174T   26237.48846961  .00065879  00000-0  10164-2 0  9997
2 58273  97.3827 328.0384 0005472 263.4016  96.6615 15.53912648156336
Epoch: 2026-08-25T11:43Z
TLE epoch observation values (Epoch: 2026-08-25T11:43:23.774Z)
Latitude
0.00002°
Longitude
178.43424°
Altitude
408.885 km
Speed
7.665 km/s
True Right ascension
21h 52m 09s
True Declination
0° 00' 00"
Sunlit
Object was in full shadow at epoch
Visualization orbit readout
Latitude
Unknown
Longitude
Unknown
Altitude
Unknown
Speed
Unknown
Apparent Right ascension
Unknown
Apparent Declination
Unknown
Sunlit
N/A
Visualization observer readout
Local Sidereal Time
11:02:54
Azimuth
Unknown
Elevation
Unknown
Doppler factor
Unknown
Orbital elements
Apogee altitude
405.945 km
Perigee altitude
398.525 km
Semi-major axis
6,780.372 km
Eccentricity
0.00055
Inclination
97.3827°
RAAN
328.0384°
Arg. of periapsis
263.4016°
True anomaly
96.72378°
Mean anomaly
96.6615°
Eccentric anomaly
96.69264°
Mean motion
3.88743 °/min
Orbital period
92.61 mins
BSTAR
0.0010164
Loading maneuver chart data...
Computing Atmospheric mass density...

Documentation

Showing up to 5 results
|